Bay City, WI

8:40 PM CST on February 13, 2016 (GMT -0600)
Red Wing Municipal

Weather History for KRGK - August, 2013

Change the Weather History Date:

Thursday, August 15, 2013

  Actual Average Record
Temperature  
Mean Temperature 64 °F -  
Max Temperature 80 °F 77 °F 95 °F (2003)
Min Temperature 48 °F 56 °F 48 °F (2004)
Degree Days  
Heating Degree Days 1    
Growing Degree Days 14 (Base 50)    
Moisture  
Dew Point 51 °F    
Average Humidity 68    
Maximum Humidity 100    
Minimum Humidity 32    
Precipitation  
Precipitation 0.00 in - - ()
Sea Level Pressure  
Sea Level Pressure 30.11 in    
Wind  
Wind Speed 1 mph (SW)    
Max Wind Speed 7 mph    
Max Gust Speed -    
Visibility 10 miles    
Events      
Averages and records for this station are not official NWS values.
T = Trace of Precipitation, MM = Missing Value Source: NWS Daily Summary

Daily Weather History Graph

Daily Weather History Graph

Search for Another Location

Airport or City:

Trip Planner

Search our weather history database for the weather conditions in past years. The results will help you decide how hot, cold, wet, or windy it might be!

Date:

Astronomy

Aug. 15, 2013 Rise Set
Actual Time 6:12 AM CDT 8:15 PM CDT
Civil Twilight 5:41 AM CDT 8:46 PM CDT
Nautical Twilight 5:02 AM CDT 9:25 PM CDT
Astronomical Twilight 4:19 AM CDT 10:07 PM CDT
Moon 3:37 PM CDT (8/15) 12:19 AM CDT (8/15)
Length of Visible Light 15h 05m
Length of Day
14h 02m
Waxing Gibbous, 64% of the Moon is Illuminated
Aug 15
Waxing Gibbous
Aug 20
Full
Aug 28
Last Quarter
Sep 5
New
Sep 12
First Quarter

Hourly Weather History & Observations

Time (CDT) Temp. Dew Point Humidity Pressure Visibility Wind Dir Wind Speed Gust Speed Precip Events Conditions
12:15 AM 55.4 °F 53.6 °F 94% 30.12 in 10.0 mi Calm Calm - N/A   Clear
12:35 AM 55.4 °F 53.6 °F 94% 30.12 in 10.0 mi North 3.5 mph - N/A   Clear
12:55 AM 53.6 °F 51.8 °F 94% 30.12 in 10.0 mi Calm Calm - N/A   Clear
1:14 AM 53.6 °F 51.8 °F 94% 30.12 in 10.0 mi Calm Calm - N/A   Clear
1:35 AM 53.6 °F 51.8 °F 94% 30.12 in 10.0 mi Calm Calm - N/A   Clear
1:55 AM 51.8 °F 51.8 °F 100% 30.12 in 10.0 mi Calm Calm - N/A   Clear
2:14 AM 51.8 °F 51.8 °F 100% 30.12 in 10.0 mi Calm Calm - N/A   Clear
2:35 AM 51.8 °F 51.8 °F 100% 30.12 in 10.0 mi Calm Calm - N/A   Clear
2:55 AM 51.8 °F 50.0 °F 94% 30.12 in 10.0 mi Calm Calm - N/A   Clear
3:15 AM 51.8 °F 50.0 °F 94% 30.12 in 10.0 mi Calm Calm - N/A   Clear
3:35 AM 51.8 °F 50.0 °F 94% 30.12 in 10.0 mi Calm Calm - N/A   Scattered Clouds
3:55 AM 51.8 °F 50.0 °F 94% 30.12 in 10.0 mi Calm Calm - N/A   Scattered Clouds
4:15 AM 50.0 °F 48.2 °F 94% 30.12 in 10.0 mi Calm Calm - N/A   Scattered Clouds
4:35 AM 50.0 °F 48.2 °F 94% 30.12 in 10.0 mi Calm Calm - N/A   Clear
4:55 AM 50.0 °F 48.2 °F 94% 30.12 in 10.0 mi Calm Calm - N/A   Clear
5:15 AM 50.0 °F 48.2 °F 94% 30.12 in 10.0 mi Calm Calm - N/A   Clear
5:35 AM 48.2 °F 48.2 °F 100% 30.13 in 10.0 mi Calm Calm - N/A   Clear
5:55 AM 48.2 °F 48.2 °F 100% 30.13 in 10.0 mi Calm Calm - N/A   Clear
6:15 AM 48.2 °F 48.2 °F 100% 30.13 in 7.0 mi Calm Calm - N/A   Clear
6:35 AM 48.2 °F 48.2 °F 100% 30.13 in 7.0 mi Calm Calm - N/A   Clear
6:55 AM 48.2 °F 48.2 °F 100% 30.14 in 7.0 mi Calm Calm - N/A   Clear
7:14 AM 51.8 °F 50.0 °F 94% 30.14 in 7.0 mi Calm Calm - N/A   Clear
7:35 AM 53.6 °F 51.8 °F 94% 30.14 in 10.0 mi Calm Calm - N/A   Clear
7:55 AM 55.4 °F 53.6 °F 94% 30.14 in 10.0 mi Calm Calm - N/A   Clear
8:14 AM 59.0 °F 55.4 °F 88% 30.14 in 10.0 mi Calm Calm - N/A   Clear
8:35 AM 62.6 °F 55.4 °F 77% 30.14 in 10.0 mi Calm Calm - N/A   Clear
8:55 AM 64.4 °F 53.6 °F 68% 30.14 in 10.0 mi Calm Calm - N/A   Clear
9:15 AM 66.2 °F 51.8 °F 60% 30.14 in 10.0 mi Calm Calm - N/A   Clear
9:35 AM 68.0 °F 55.4 °F 64% 30.14 in 10.0 mi Calm Calm - N/A   Clear
9:55 AM 69.8 °F 53.6 °F 56% 30.14 in 10.0 mi Calm Calm - N/A   Clear
10:15 AM 71.6 °F 53.6 °F 53% 30.14 in 10.0 mi West 3.5 mph - N/A   Clear
10:35 AM 73.4 °F 53.6 °F 50% 30.13 in 10.0 mi Calm Calm - N/A   Clear
10:55 AM 73.4 °F 53.6 °F 50% 30.13 in 10.0 mi SSW 4.6 mph - N/A   Clear
11:15 AM 73.4 °F 53.6 °F 50% 30.13 in 10.0 mi SSW 3.5 mph - N/A   Clear
11:35 AM 75.2 °F 53.6 °F 47% 30.12 in 10.0 mi SW 4.6 mph - N/A   Clear
11:55 AM 75.2 °F 51.8 °F 44% 30.12 in 10.0 mi SSW 3.5 mph - N/A   Clear
12:15 PM 75.2 °F 50.0 °F 41% 30.11 in 10.0 mi South 3.5 mph - N/A   Clear
12:35 PM 78.8 °F 46.4 °F 32% 30.11 in 10.0 mi WSW 4.6 mph - N/A   Clear
12:55 PM 78.8 °F 46.4 °F 32% 30.10 in 10.0 mi West 4.6 mph - N/A   Clear
1:15 PM 78.8 °F 46.4 °F 32% 30.10 in 10.0 mi SW 3.5 mph - N/A   Clear
1:35 PM 78.8 °F 46.4 °F 32% 30.10 in 10.0 mi Calm Calm - N/A   Scattered Clouds
1:55 PM 78.8 °F 48.2 °F 34% 30.10 in 10.0 mi West 5.8 mph - N/A   Mostly Cloudy
2:15 PM 80.6 °F 48.2 °F 32% 30.10 in 10.0 mi West 5.8 mph - N/A   Scattered Clouds
2:34 PM 78.8 °F 48.2 °F 34% 30.09 in 10.0 mi South 4.6 mph - N/A   Clear
2:55 PM 78.8 °F 46.4 °F 32% 30.09 in 10.0 mi SSW 5.8 mph - N/A   Mostly Cloudy
3:15 PM 78.8 °F 46.4 °F 32% 30.09 in 10.0 mi SW 4.6 mph - N/A   Mostly Cloudy
3:35 PM 78.8 °F 46.4 °F 32% 30.08 in 10.0 mi South 3.5 mph - N/A   Scattered Clouds
3:55 PM 78.8 °F 46.4 °F 32% 30.08 in 10.0 mi SSW 5.8 mph - N/A   Scattered Clouds
4:15 PM 78.8 °F 46.4 °F 32% 30.08 in 10.0 mi SSW 5.8 mph - N/A   Scattered Clouds
4:35 PM 78.8 °F 48.2 °F 34% 30.08 in 10.0 mi South 5.8 mph - N/A   Scattered Clouds
4:55 PM 78.8 °F 48.2 °F 34% 30.08 in 10.0 mi SSW 5.8 mph - N/A   Clear
5:14 PM 78.8 °F 48.2 °F 34% 30.08 in 10.0 mi SSW 6.9 mph - N/A   Scattered Clouds
5:35 PM 78.8 °F 48.2 °F 34% 30.08 in 10.0 mi South 4.6 mph - N/A   Mostly Cloudy
5:54 PM 78.8 °F 48.2 °F 34% 30.08 in 10.0 mi SSW 5.8 mph - N/A   Mostly Cloudy
6:15 PM 78.8 °F 48.2 °F 34% 30.08 in 10.0 mi SSW 5.8 mph - N/A   Scattered Clouds
6:35 PM 77.0 °F 48.2 °F 36% 30.08 in 10.0 mi SSW 3.5 mph - N/A   Clear
6:55 PM 75.2 °F 48.2 °F 38% 30.08 in 10.0 mi SSW 3.5 mph - N/A   Clear
7:15 PM 73.4 °F 51.8 °F 47% 30.09 in 10.0 mi Calm Calm - N/A   Clear
7:35 PM 71.6 °F 55.4 °F 57% 30.09 in 10.0 mi Calm Calm - N/A   Clear
7:55 PM 68.0 °F 57.2 °F 68% 30.09 in 10.0 mi Calm Calm - N/A   Clear
8:14 PM 66.2 °F 57.2 °F 73% 30.09 in 10.0 mi Calm Calm - N/A   Clear
8:35 PM 62.6 °F 57.2 °F 82% 30.09 in 10.0 mi Calm Calm - N/A   Clear
8:55 PM 62.6 °F 55.4 °F 77% 30.10 in 10.0 mi North 3.5 mph - N/A   Clear
9:15 PM 60.8 °F 55.4 °F 82% 30.11 in 10.0 mi North 3.5 mph - N/A   Clear
9:35 PM 60.8 °F 55.4 °F 82% 30.11 in 10.0 mi Calm Calm - N/A   Clear
9:55 PM 60.8 °F 55.4 °F 82% 30.11 in 10.0 mi Calm Calm - N/A   Scattered Clouds
10:15 PM 60.8 °F 55.4 °F 82% 30.12 in 10.0 mi Calm Calm - N/A   Clear
10:35 PM 60.8 °F 53.6 °F 77% 30.12 in 10.0 mi Calm Calm - N/A   Scattered Clouds
10:55 PM 57.2 °F 55.4 °F 94% 30.12 in 10.0 mi Calm Calm - N/A   Scattered Clouds
11:15 PM 57.2 °F 53.6 °F 88% 30.13 in 10.0 mi Calm Calm - N/A   Clear
11:35 PM 57.2 °F 53.6 °F 88% 30.14 in 10.0 mi Calm Calm - N/A   Clear
11:55 PM 57.2 °F 53.6 °F 88% 30.14 in 10.0 mi Calm Calm - N/A   Scattered Clouds